Time,TemperatureF,DewpointF,PressureIn,WindDirection,WindDirectionDegrees,WindSpeedMPH,WindSpeedGustMPH,Humidity,HourlyPrecipIn,Conditions,Clouds,dailyrainin,SoftwareType,DateUTC
2013-02-18 00:02:00,16.0,4.0,-100.00,South,185,6.0,12.0,60,-99.99,,,-99.99,,2013-02-18 06:02:00,
2013-02-18 00:11:00,16.0,4.0,-100.00,South,185,6.0,12.0,60,-99.99,,,-99.99,,2013-02-18 06:11:00,
2013-02-18 00:32:00,19.0,9.0,-100.00,SSE,165,7.0,15.0,64,-99.99,,,-99.99,,2013-02-18 06:32:00,
2013-02-18 00:42:00,19.0,9.0,-100.00,SSE,165,7.0,15.0,64,-99.99,,,-99.99,,2013-02-18 06:42:00,
2013-02-18 00:52:00,19.0,9.0,-100.00,SSE,165,7.0,15.0,64,-99.99,,,-99.99,,2013-02-18 06:52:00,
2013-02-18 01:01:00,19.0,9.0,-100.00,SSE,165,7.0,15.0,64,-99.99,,,-99.99,,2013-02-18 07:01:00,
2013-02-18 01:32:00,21.0,11.0,-100.00,SSE,160,7.0,14.0,66,-99.99,,,-99.99,,2013-02-18 07:32:00,
2013-02-18 01:42:00,21.0,11.0,-100.00,SSE,160,7.0,14.0,66,-99.99,,,-99.99,,2013-02-18 07:42:00,
2013-02-18 01:52:00,21.0,11.0,-100.00,SSE,160,7.0,14.0,66,-99.99,,,-99.99,,2013-02-18 07:52:00,
2013-02-18 02:01:00,21.0,11.0,-100.00,SSE,160,7.0,14.0,66,-99.99,,,-99.99,,2013-02-18 08:01:00,
2013-02-18 02:11:00,21.0,11.0,-100.00,SSE,160,7.0,14.0,66,-99.99,,,-99.99,,2013-02-18 08:11:00,
2013-02-18 02:33:00,20.0,12.0,-100.00,SSE,160,7.0,15.0,69,-99.99,,,-99.99,,2013-02-18 08:33:00,
2013-02-18 02:42:00,20.0,12.0,-100.00,SSE,160,7.0,15.0,69,-99.99,,,-99.99,,2013-02-18 08:42:00,
2013-02-18 02:52:00,20.0,12.0,-100.00,SSE,160,7.0,15.0,69,-99.99,,,-99.99,,2013-02-18 08:52:00,
2013-02-18 03:02:00,20.0,12.0,-100.00,SSE,160,7.0,15.0,69,-99.99,,,-99.99,,2013-02-18 09:02:00,
2013-02-18 03:11:00,20.0,12.0,-100.00,SSE,160,7.0,15.0,69,-99.99,,,-99.99,,2013-02-18 09:11:00,
2013-02-18 03:32:00,20.0,12.0,-100.00,SSE,160,9.0,17.0,70,-99.99,,,-99.99,,2013-02-18 09:32:00,
2013-02-18 03:42:00,20.0,12.0,-100.00,SSE,160,9.0,17.0,70,-99.99,,,-99.99,,2013-02-18 09:42:00,
2013-02-18 03:52:00,20.0,12.0,-100.00,SSE,160,9.0,17.0,70,-99.99,,,-99.99,,2013-02-18 09:52:00,
2013-02-18 04:01:00,20.0,12.0,-100.00,SSE,160,9.0,17.0,70,-99.99,,,-99.99,,2013-02-18 10:01:00,
2013-02-18 04:11:00,21.0,13.0,-100.00,South,175,9.0,16.0,70,-99.99,,,-99.99,,2013-02-18 10:11:00,
2013-02-18 04:32:00,21.0,13.0,-100.00,South,175,9.0,16.0,70,-99.99,,,-99.99,,2013-02-18 10:32:00,
2013-02-18 04:42:00,21.0,13.0,-100.00,South,175,9.0,16.0,70,-99.99,,,-99.99,,2013-02-18 10:42:00,
2013-02-18 04:53:00,21.0,13.0,-100.00,South,175,9.0,16.0,70,-99.99,,,-99.99,,2013-02-18 10:53:00,
2013-02-18 05:01:00,21.0,13.0,-100.00,South,175,9.0,16.0,70,-99.99,,,-99.99,,2013-02-18 11:01:00,
2013-02-18 05:11:00,21.0,14.0,-100.00,SSE,155,5.0,9.0,74,-99.99,,,-99.99,,2013-02-18 11:11:00,
2013-02-18 05:33:00,21.0,14.0,-100.00,SSE,155,5.0,9.0,74,-99.99,,,-99.99,,2013-02-18 11:33:00,
2013-02-18 05:43:00,21.0,14.0,-100.00,SSE,155,5.0,9.0,74,-99.99,,,-99.99,,2013-02-18 11:43:00,
2013-02-18 05:53:00,21.0,14.0,-100.00,SSE,155,5.0,9.0,74,-99.99,,,-99.99,,2013-02-18 11:53:00,
2013-02-18 06:02:00,21.0,14.0,-100.00,SSE,155,5.0,9.0,74,-99.99,,,-99.99,,2013-02-18 12:02:00,
2013-02-18 06:11:00,21.0,15.0,-100.00,SSE,160,6.0,14.0,77,-99.99,,,-99.99,,2013-02-18 12:11:00,
2013-02-18 06:32:00,21.0,15.0,-100.00,SSE,160,6.0,14.0,77,-99.99,,,-99.99,,2013-02-18 12:32:00,
2013-02-18 06:42:00,21.0,15.0,-100.00,SSE,160,6.0,14.0,77,-99.99,,,-99.99,,2013-02-18 12:42:00,
2013-02-18 06:53:00,21.0,15.0,-100.00,SSE,160,6.0,14.0,77,-99.99,,,-99.99,,2013-02-18 12:53:00,
2013-02-18 07:02:00,21.0,15.0,-100.00,SSE,160,6.0,14.0,77,-99.99,,,-99.99,,2013-02-18 13:02:00,
2013-02-18 07:11:00,21.0,15.0,-100.00,SSE,160,7.0,11.0,79,-99.99,,,-99.99,,2013-02-18 13:11:00,
2013-02-18 07:32:00,21.0,15.0,-100.00,SSE,160,7.0,11.0,79,-99.99,,,-99.99,,2013-02-18 13:32:00,
2013-02-18 07:42:00,21.0,15.0,-100.00,SSE,160,7.0,11.0,79,-99.99,,,-99.99,,2013-02-18 13:42:00,
2013-02-18 07:53:00,21.0,15.0,-100.00,SSE,160,7.0,11.0,79,-99.99,,,-99.99,,2013-02-18 13:53:00,
2013-02-18 08:02:00,21.0,15.0,-100.00,SSE,160,7.0,11.0,79,-99.99,,,-99.99,,2013-02-18 14:02:00,
2013-02-18 08:11:00,22.0,17.0,-100.00,South,170,4.0,11.0,78,-99.99,,,-99.99,,2013-02-18 14:11:00,
2013-02-18 08:34:00,22.0,17.0,-100.00,South,170,4.0,11.0,78,-99.99,,,-99.99,,2013-02-18 14:34:00,
2013-02-18 08:42:00,22.0,17.0,-100.00,South,170,4.0,11.0,78,-99.99,,,-99.99,,2013-02-18 14:42:00,
2013-02-18 08:53:00,22.0,17.0,-100.00,South,170,4.0,11.0,78,-99.99,,,-99.99,,2013-02-18 14:53:00,
2013-02-18 09:02:00,22.0,17.0,-100.00,South,170,4.0,11.0,78,-99.99,,,-99.99,,2013-02-18 15:02:00,
2013-02-18 09:11:00,25.0,18.0,-100.00,SSE,160,6.0,16.0,75,-99.99,,,-99.99,,2013-02-18 15:11:00,
2013-02-18 09:32:00,25.0,18.0,-100.00,SSE,160,6.0,16.0,75,-99.99,,,-99.99,,2013-02-18 15:32:00,
2013-02-18 09:42:00,25.0,18.0,-100.00,SSE,160,6.0,16.0,75,-99.99,,,-99.99,,2013-02-18 15:42:00,
2013-02-18 09:53:00,25.0,18.0,-100.00,SSE,160,6.0,16.0,75,-99.99,,,-99.99,,2013-02-18 15:53:00,
2013-02-18 10:02:00,25.0,18.0,-100.00,SSE,160,6.0,16.0,75,-99.99,,,-99.99,,2013-02-18 16:02:00,
2013-02-18 10:12:00,29.0,21.0,-100.00,SSE,150,4.0,9.0,70,-99.99,,,-99.99,,2013-02-18 16:12:00,
2013-02-18 10:33:00,29.0,21.0,-100.00,SSE,150,4.0,9.0,70,-99.99,,,-99.99,,2013-02-18 16:33:00,
2013-02-18 10:43:00,29.0,21.0,-100.00,SSE,150,4.0,9.0,70,-99.99,,,-99.99,,2013-02-18 16:43:00,
2013-02-18 10:53:00,29.0,21.0,-100.00,SSE,150,4.0,9.0,70,-99.99,,,-99.99,,2013-02-18 16:53:00,
2013-02-18 11:03:00,29.0,21.0,-100.00,SSE,150,4.0,9.0,70,-99.99,,,-99.99,,2013-02-18 17:03:00,
2013-02-18 11:33:00,31.0,21.0,-100.00,SSW,195,6.0,12.0,68,-99.99,,,-99.99,,2013-02-18 17:33:00,
2013-02-18 11:43:00,31.0,21.0,-100.00,SSW,195,6.0,12.0,68,-99.99,,,-99.99,,2013-02-18 17:43:00,
2013-02-18 11:53:00,31.0,21.0,-100.00,SSW,195,6.0,12.0,68,-99.99,,,-99.99,,2013-02-18 17:53:00,
2013-02-18 12:02:00,31.0,21.0,-100.00,SSW,195,6.0,12.0,68,-99.99,,,-99.99,,2013-02-18 18:02:00,
2013-02-18 12:12:00,31.0,21.0,-100.00,SSW,195,6.0,12.0,68,-99.99,,,-99.99,,2013-02-18 18:12:00,
2013-02-18 12:33:00,32.0,22.0,-100.00,South,170,4.0,9.0,65,-99.99,,,-99.99,,2013-02-18 18:33:00,
2013-02-18 12:43:00,32.0,22.0,-100.00,South,170,4.0,9.0,65,-99.99,,,-99.99,,2013-02-18 18:43:00,
2013-02-18 12:53:00,32.0,22.0,-100.00,South,170,4.0,9.0,65,-99.99,,,-99.99,,2013-02-18 18:53:00,
2013-02-18 13:02:00,32.0,22.0,-100.00,South,170,4.0,9.0,65,-99.99,,,-99.99,,2013-02-18 19:02:00,
2013-02-18 13:12:00,34.0,22.0,-100.00,SSE,155,4.0,6.0,61,-99.99,,,-99.99,,2013-02-18 19:12:00,
2013-02-18 13:34:00,34.0,22.0,-100.00,SSE,155,4.0,6.0,61,-99.99,,,-99.99,,2013-02-18 19:34:00,
2013-02-18 13:43:00,34.0,22.0,-100.00,SSE,155,4.0,6.0,61,-99.99,,,-99.99,,2013-02-18 19:43:00,
2013-02-18 13:53:00,34.0,22.0,-100.00,SSE,155,4.0,6.0,61,-99.99,,,-99.99,,2013-02-18 19:53:00,
2013-02-18 14:02:00,34.0,22.0,-100.00,SSE,155,4.0,6.0,61,-99.99,,,-99.99,,2013-02-18 20:02:00,
2013-02-18 14:11:00,34.0,23.0,-100.00,SSE,155,4.0,8.0,64,-99.99,,,-99.99,,2013-02-18 20:11:00,
2013-02-18 14:33:00,34.0,23.0,-100.00,SSE,155,4.0,8.0,64,-99.99,,,-99.99,,2013-02-18 20:33:00,
2013-02-18 14:43:00,34.0,23.0,-100.00,SSE,155,4.0,8.0,64,-99.99,,,-99.99,,2013-02-18 20:43:00,
2013-02-18 14:53:00,34.0,23.0,-100.00,SSE,155,4.0,8.0,64,-99.99,,,-99.99,,2013-02-18 20:53:00,
2013-02-18 15:03:00,34.0,23.0,-100.00,SSE,155,4.0,8.0,64,-99.99,,,-99.99,,2013-02-18 21:03:00,
2013-02-18 15:12:00,33.0,23.0,-100.00,South,190,3.0,6.0,66,-99.99,,,-99.99,,2013-02-18 21:12:00,
2013-02-18 15:33:00,33.0,23.0,-100.00,South,190,3.0,6.0,66,-99.99,,,-99.99,,2013-02-18 21:33:00,
2013-02-18 15:43:00,33.0,23.0,-100.00,South,190,3.0,6.0,66,-99.99,,,-99.99,,2013-02-18 21:43:00,
2013-02-18 15:53:00,33.0,23.0,-100.00,South,190,3.0,6.0,66,-99.99,,,-99.99,,2013-02-18 21:53:00,
2013-02-18 16:02:00,33.0,23.0,-100.00,South,190,3.0,6.0,66,-99.99,,,-99.99,,2013-02-18 22:02:00,
2013-02-18 16:33:00,32.0,26.0,-100.00,West,280,1.0,6.0,77,-99.99,,,-99.99,,2013-02-18 22:33:00,
2013-02-18 16:43:00,32.0,26.0,-100.00,West,280,1.0,6.0,77,-99.99,,,-99.99,,2013-02-18 22:43:00,
2013-02-18 16:53:00,32.0,26.0,-100.00,West,280,1.0,6.0,77,-99.99,,,-99.99,,2013-02-18 22:53:00,
2013-02-18 17:02:00,32.0,26.0,-100.00,West,280,1.0,6.0,77,-99.99,,,-99.99,,2013-02-18 23:02:00,
2013-02-18 17:12:00,32.0,26.0,-100.00,West,280,1.0,6.0,77,-99.99,,,-99.99,,2013-02-18 23:12:00,
2013-02-18 17:34:00,31.0,28.0,-100.00,WSW,245,1.0,2.0,91,-99.99,,,-99.99,,2013-02-18 23:34:00,
2013-02-18 17:43:00,31.0,28.0,-100.00,WSW,245,1.0,2.0,91,-99.99,,,-99.99,,2013-02-18 23:43:00,
2013-02-18 17:53:00,31.0,28.0,-100.00,WSW,245,1.0,2.0,91,-99.99,,,-99.99,,2013-02-18 23:53:00,
2013-02-18 18:03:00,31.0,28.0,-100.00,WSW,245,1.0,2.0,91,-99.99,,,-99.99,,2013-02-19 00:03:00,
2013-02-18 18:13:00,30.0,29.0,-100.00,NNW,330,6.0,7.0,97,-99.99,,,-99.99,,2013-02-19 00:13:00,
2013-02-18 18:35:00,30.0,29.0,-100.00,NNW,330,6.0,7.0,97,-99.99,,,-99.99,,2013-02-19 00:35:00,
2013-02-18 18:44:00,30.0,29.0,-100.00,NNW,330,6.0,7.0,97,-99.99,,,-99.99,,2013-02-19 00:44:00,
2013-02-18 18:54:00,30.0,29.0,-100.00,NNW,330,6.0,7.0,97,-99.99,,,-99.99,,2013-02-19 00:54:00,
2013-02-18 19:03:00,30.0,29.0,-100.00,NNW,330,6.0,7.0,97,-99.99,,,-99.99,,2013-02-19 01:03:00,
2013-02-18 19:11:00,29.0,28.0,-100.00,NW,325,2.0,5.0,98,-99.99,,,-99.99,,2013-02-19 01:11:00,
2013-02-18 19:35:00,29.0,28.0,-100.00,NW,325,2.0,5.0,98,-99.99,,,-99.99,,2013-02-19 01:35:00,
2013-02-18 19:56:00,29.0,28.0,-100.00,NW,325,2.0,5.0,98,-99.99,,,-99.99,,2013-02-19 01:56:00,
2013-02-18 20:03:00,29.0,28.0,-100.00,NW,325,2.0,5.0,98,-99.99,,,-99.99,,2013-02-19 02:03:00,
2013-02-18 20:12:00,29.0,28.0,-100.00,NNW,330,4.0,9.0,99,-99.99,,,-99.99,,2013-02-19 02:12:00,
2013-02-18 20:35:00,29.0,28.0,-100.00,NNW,330,4.0,9.0,99,-99.99,,,-99.99,,2013-02-19 02:35:00,
2013-02-18 20:44:00,29.0,28.0,-100.00,NNW,330,4.0,9.0,99,-99.99,,,-99.99,,2013-02-19 02:44:00,
2013-02-18 20:55:00,29.0,28.0,-100.00,NNW,330,4.0,9.0,99,-99.99,,,-99.99,,2013-02-19 02:55:00,
2013-02-18 21:06:00,29.0,28.0,-100.00,NNW,330,4.0,9.0,99,-99.99,,,-99.99,,2013-02-19 03:06:00,
2013-02-18 21:11:00,28.0,27.0,-100.00,NNW,335,11.0,19.0,99,-99.99,,,-99.99,,2013-02-19 03:11:00,
2013-02-18 21:35:00,28.0,27.0,-100.00,NNW,335,11.0,19.0,99,-99.99,,,-99.99,,2013-02-19 03:35:00,
2013-02-18 21:45:00,28.0,27.0,-100.00,NNW,335,11.0,19.0,99,-99.99,,,-99.99,,2013-02-19 03:45:00,
2013-02-18 21:55:00,28.0,27.0,-100.00,NNW,335,11.0,19.0,99,-99.99,,,-99.99,,2013-02-19 03:55:00,
2013-02-18 22:02:00,28.0,27.0,-100.00,NNW,335,11.0,19.0,99,-99.99,,,-99.99,,2013-02-19 04:02:00,
2013-02-18 23:11:00,25.0,25.0,-100.00,NNW,335,7.0,15.0,99,-99.99,,,-99.99,,2013-02-19 05:11:00,
2013-02-18 23:32:00,25.0,25.0,-100.00,NNW,335,7.0,15.0,99,-99.99,,,-99.99,,2013-02-19 05:32:00,
2013-02-18 23:43:00,25.0,25.0,-100.00,NNW,335,7.0,15.0,99,-99.99,,,-99.99,,2013-02-19 05:43:00,
2013-02-18 23:52:00,25.0,25.0,-100.00,NNW,335,7.0,15.0,99,-99.99,,,-99.99,,2013-02-19 05:52:00,